Location: Borovka
(49.7741°N, 14.5280°E)
Time: 18:00:18
(UTC+00:00)

NOAA 18 - Visible Passes

Search period start: 07 March 2026 00:00
Search period end: 17 March 2026 00:00
Orbit: 836 x 858 km, 98.8° (Epoch: 7 March)

Date Brightness Start Highest point End Pass type
(mag) Time Alt. Az. Time Alt. Az. Time Alt. Az.
7 Mar 6.8 20:31:44 26° N 20:31:44 26° N 20:34:14 10° N visible
7 Mar 7.8 22:13:39 15° NW 22:13:39 15° NW 22:14:41 10° NNW visible
8 Mar 6.8 20:18:28 25° NNE 20:18:28 25° NNE 20:21:07 10° N visible
8 Mar 7.6 22:00:22 18° NW 22:00:22 18° NW 22:01:51 10° NNW visible
9 Mar 6.8 20:05:12 24° NNE 20:05:12 24° NNE 20:07:56 10° N visible
9 Mar 7.4 21:47:06 21° NNW 21:47:06 21° NNW 21:48:58 10° NNW visible
10 Mar 6.8 19:51:55 22° NNE 19:51:55 22° NNE 19:54:43 10° N visible
10 Mar 7.2 21:33:50 25° NNW 21:33:50 25° NNW 21:36:02 10° NNW visible
11 Mar 6.9 19:38:38 19° NE 19:38:38 19° NE 19:41:27 10° N visible
11 Mar 6.9 21:20:32 28° NNW 21:20:32 28° NNW 21:23:03 10° NNW visible
12 Mar 7.0 19:25:21 17° NE 19:25:21 17° NE 19:28:05 10° NNE visible
12 Mar 6.7 21:07:16 31° NNW 21:07:16 31° NNW 21:10:02 10° NNW visible
12 Mar 8.0 22:49:10 10° NW 22:49:10 10° NW 22:49:18 10° NW visible
13 Mar 7.1 19:12:05 14° NE 19:12:05 14° NE 19:14:36 10° NNE visible
13 Mar 6.5 20:53:59 33° N 20:53:59 33° N 20:56:59 10° N visible
13 Mar 7.8 22:35:53 13° NW 22:35:53 13° NW 22:36:47 10° NW visible
14 Mar 7.2 18:58:48 11° NE 18:59:08 11° NE 19:00:48 10° NNE visible
14 Mar 6.4 20:40:43 34° N 20:40:43 34° N 20:43:54 10° N visible
14 Mar 7.6 22:22:37 17° NW 22:22:37 17° NW 22:24:06 10° NW visible
15 Mar 6.4 20:27:25 33° NNE 20:27:25 33° NNE 20:30:48 10° N visible
15 Mar 7.4 22:09:20 20° NW 22:09:20 20° NW 22:11:19 10° NNW visible
16 Mar 6.4 20:14:09 30° NNE 20:14:09 30° NNE 20:17:39 10° N visible
16 Mar 7.1 21:56:04 24° NW 21:56:04 24° NW 21:58:28 10° NNW visible
